Find Kosmos-2523

NORAD ID: 42986 Int'l Des: 2017-037 Owner: VVKOV Country: RU operational
LEOCIRCULARRETROGRADESSO

实时位置

正在加载3D地球...

关于 Kosmos-2523

正在加载描述...

即将过境

Passes for default location (London). Set your location on the main map for personalized predictions.

高度历史

Loading altitude history...

两行轨道根数

1 42986U 17037E 26104.16186441 .00000604 00000-0 57510-4 0 9993
2 42986 97.5033 119.9992 0068678 84.7733 276.1320 14.95213217459391
Epoch: Apr 14, 2026 • Age: 7 hours

当前状态

高度 636.7 km
速度 7.52 km/s
星下点 -45.32°S, 79.6°W
发射日期 Jun 23, 2017
运行时间 8.8 years
类型 other

技术详情

分类 Payload
质量 47.00 kg
干质量 47.00 kg
总质量 47.00 kg
长度 0.40 m
直径 0.20 m
跨度 0.40 m
形状 Box
制造商 TSKHM
平台类型 Naprazheniye
阶段状态 In Orbit
所有者/国家 VVKOV/RU

Most Searched